TimeEST,TemperatureF,Dew PointF,Humidity,Sea Level PressureIn,VisibilityMPH,Wind Direction,Wind SpeedMPH,Gust SpeedMPH,PrecipitationIn,Events,Conditions,WindDirDegrees,DateUTC
12:51 AM,42.1,24.1,49,30.32,10.0,SE,10.4,-,N/A,,Clear,140,2013-01-09 05:51:00
1:51 AM,42.1,25.0,51,30.32,10.0,SSE,5.8,-,N/A,,Clear,150,2013-01-09 06:51:00
2:51 AM,42.1,27.0,55,30.34,10.0,SSE,3.5,-,N/A,,Clear,150,2013-01-09 07:51:00
3:51 AM,39.0,28.0,65,30.35,10.0,SSW,5.8,-,N/A,,Clear,200,2013-01-09 08:51:00
4:24 AM,44.6,33.8,66,30.31,10.0,SSW,3.5,-,N/A,,Mostly Cloudy,200,2013-01-09 09:24:00
4:39 AM,37.4,30.2,75,30.31,10.0,Calm,Calm,-,N/A,,Overcast,0,2013-01-09 09:39:00
4:51 AM,37.9,30.0,73,30.35,10.0,Calm,Calm,-,N/A,,Overcast,0,2013-01-09 09:51:00
5:51 AM,39.0,32.0,76,30.37,10.0,SSW,3.5,-,N/A,,Overcast,210,2013-01-09 10:51:00
6:51 AM,46.9,35.1,63,30.37,10.0,SW,5.8,-,N/A,,Overcast,230,2013-01-09 11:51:00
7:48 AM,46.4,35.6,66,30.35,10.0,Calm,Calm,-,N/A,,Overcast,0,2013-01-09 12:48:00
7:51 AM,46.0,36.0,68,30.38,10.0,SW,3.5,-,N/A,,Overcast,220,2013-01-09 12:51:00
8:11 AM,46.4,35.6,66,30.35,10.0,Calm,Calm,-,N/A,,Overcast,0,2013-01-09 13:11:00
8:21 AM,46.4,35.6,66,30.36,10.0,Calm,Calm,-,N/A,,Overcast,0,2013-01-09 13:21:00
9:51 AM,50.0,37.9,63,30.40,10.0,SW,3.5,-,N/A,,Overcast,230,2013-01-09 14:51:00
10:51 AM,50.0,39.9,68,30.41,10.0,WSW,3.5,-,0.00,,Overcast,250,2013-01-09 15:51:00
11:33 AM,48.2,42.8,82,30.39,5.0,Calm,Calm,-,0.00,Rain,Light Rain,0,2013-01-09 16:33:00
11:51 AM,46.4,42.8,87,30.38,10.0,Calm,Calm,-,N/A,,Overcast,0,2013-01-09 16:51:00
12:16 PM,46.4,42.8,87,30.39,1.8,Calm,Calm,-,0.01,Rain,Light Rain,0,2013-01-09 17:16:00
12:40 PM,46.4,44.6,93,30.39,2.5,SW,3.5,-,0.03,Rain,Light Rain,220,2013-01-09 17:40:00
12:51 PM,46.0,45.0,96,30.41,2.5,SSW,3.5,-,0.04,Rain,Light Rain,210,2013-01-09 17:51:00
1:02 PM,46.4,44.6,93,30.38,3.0,SSW,3.5,-,0.01,Rain,Light Rain,210,2013-01-09 18:02:00
1:51 PM,48.0,46.0,93,30.40,5.0,SW,5.8,-,0.03,Rain,Light Rain,230,2013-01-09 18:51:00
2:51 PM,48.0,46.0,93,30.39,10.0,SSW,6.9,-,0.01,Rain,Light Rain,200,2013-01-09 19:51:00
3:51 PM,46.9,45.0,93,30.41,7.0,SW,5.8,-,0.00,,Overcast,220,2013-01-09 20:51:00
4:05 PM,46.4,44.6,93,30.37,1.8,SW,8.1,-,N/A,,Overcast,230,2013-01-09 21:05:00
4:15 PM,46.4,44.6,93,30.37,0.2,SW,6.9,-,N/A,Fog,Fog,230,2013-01-09 21:15:00
4:51 PM,46.0,45.0,96,30.42,0.2,SW,8.1,-,N/A,Fog,Fog,230,2013-01-09 21:51:00
5:33 PM,46.4,44.6,93,30.39,0.5,WSW,6.9,-,N/A,Fog,Fog,240,2013-01-09 22:33:00
5:51 PM,46.0,45.0,96,30.44,0.5,WSW,5.8,-,N/A,Fog,Fog,250,2013-01-09 22:51:00
6:16 PM,46.4,44.6,93,30.41,0.2,WSW,5.8,-,N/A,Fog,Fog,250,2013-01-09 23:16:00
6:46 PM,46.4,44.6,93,30.42,0.5,SW,4.6,-,0.00,Fog,Fog,230,2013-01-09 23:46:00
6:51 PM,46.4,44.6,93,30.42,0.8,SW,3.5,-,N/A,,Mist,230,2013-01-09 23:51:00
7:02 PM,46.4,44.6,93,30.43,1.0,SW,4.6,-,N/A,,Mist,230,2013-01-10 00:02:00
7:31 PM,46.4,44.6,93,30.44,0.8,WSW,4.6,-,0.01,Rain,Light Rain,250,2013-01-10 00:31:00
7:51 PM,46.0,45.0,96,30.47,0.5,West,4.6,-,0.01,Fog-Rain,Light Rain,260,2013-01-10 00:51:00
8:06 PM,46.4,44.6,93,30.45,1.0,West,5.8,-,0.01,,Mist,260,2013-01-10 01:06:00
8:13 PM,46.4,44.6,93,30.46,0.5,WNW,4.6,-,0.01,Fog,Fog,290,2013-01-10 01:13:00
8:25 PM,46.4,44.6,93,30.46,1.2,West,3.5,-,0.01,,Overcast,280,2013-01-10 01:25:00
8:33 PM,46.4,44.6,93,30.47,3.0,West,4.6,-,0.01,,Overcast,270,2013-01-10 01:33:00
8:51 PM,46.0,44.1,93,30.49,9.0,NW,4.6,-,0.01,,Overcast,310,2013-01-10 01:51:00
9:06 PM,44.6,44.6,100,30.47,1.8,NNW,3.5,-,N/A,,Overcast,330,2013-01-10 02:06:00
9:13 PM,44.6,42.8,93,30.47,0.2,NW,3.5,-,N/A,Fog,Fog,320,2013-01-10 02:13:00
9:24 PM,44.6,42.8,93,30.47,1.0,WNW,4.6,-,N/A,,Mostly Cloudy,300,2013-01-10 02:24:00
9:31 PM,44.6,42.8,93,30.47,0.8,NW,5.8,-,N/A,,Scattered Clouds,310,2013-01-10 02:31:00
9:36 PM,44.6,42.8,93,30.47,1.0,NW,4.6,-,N/A,,Mist,310,2013-01-10 02:36:00
9:40 PM,44.6,42.8,93,30.47,2.5,WNW,4.6,-,N/A,,Partly Cloudy,300,2013-01-10 02:40:00
9:47 PM,42.8,42.8,100,30.47,5.0,WNW,3.5,-,N/A,,Clear,290,2013-01-10 02:47:00
9:51 PM,43.0,42.1,97,30.49,1.0,West,3.5,-,N/A,,Mist,280,2013-01-10 02:51:00
9:54 PM,42.8,41.0,93,30.47,0.2,West,3.5,-,N/A,Fog,Fog,280,2013-01-10 02:54:00
10:09 PM,42.8,42.8,100,30.47,1.0,WNW,3.5,-,N/A,,Mist,300,2013-01-10 03:09:00
10:21 PM,44.6,42.8,93,30.47,2.0,WNW,4.6,-,N/A,,Partly Cloudy,290,2013-01-10 03:21:00
10:29 PM,42.8,42.8,100,30.48,8.0,WNW,4.6,-,N/A,,Clear,300,2013-01-10 03:29:00
10:51 PM,42.1,41.0,96,30.51,10.0,NW,5.8,-,N/A,,Clear,310,2013-01-10 03:51:00
11:51 PM,42.1,37.0,82,30.51,10.0,NW,4.6,-,N/A,,Clear,320,2013-01-10 04:51:00